Overview Statistics Trail Chart Weather Telemetry Raw packets
 

This is the latest recevied weather packets stored in our database for station/object SV9TNF-51. If no packets are shown the sender has not sent any weather packets the latest 10 day(s).

<< 84 85 86 87 88 89 90 >>
Time Temp. Humidity Pressure Rain* Wind** Luminosity Snow
1788048125 24.44° C 64% 1012.5 hPa 0 mm 2.68 m/s, 83° - -
1788047824 25° C 64% 1012.5 hPa 0 mm 4.02 m/s, 24° - -
1788047524 24.44° C 61% 1012.5 hPa 0 mm 2.68 m/s, 68° - -
1788047224 24.44° C 60% 1012.5 hPa 0 mm 2.24 m/s, 96° - -
1788046924 24.44° C 60% 1012.5 hPa 0 mm 2.24 m/s, 83° - -
1788046624 24.44° C 60% 1012.5 hPa 0 mm 3.13 m/s, 79° - -
1788046324 24.44° C 60% 1012.5 hPa 0 mm 0.89 m/s, 131° - -
1788046024 24.44° C 59% 1012.5 hPa 0 mm 3.13 m/s, 31° - -
1788045724 24.44° C 60% 1012.5 hPa 0 mm 3.13 m/s, 198° - -
1788045437 24.44° C 61% 1012.5 hPa 0 mm 4.02 m/s, 337° - -
1788045124 24.44° C 63% 1013.2 hPa 0 mm 1.79 m/s, 131° - -
1788044824 24.44° C 61% 1013.2 hPa 0 mm 0 m/s - -
1788044523 25° C 61% 1013.2 hPa 0 mm 1.79 m/s, 115° - -
1788044223 24.44° C 61% 1013.2 hPa 0 mm 4.02 m/s, 72° - -
1788043923 25° C 61% 1013.2 hPa 0 mm 4.47 m/s, 334° - -
1788043623 25° C 60% 1013.2 hPa 0 mm 6.26 m/s, 351° - -
1788043323 25° C 60% 1013.2 hPa 0 mm 5.81 m/s, 70° - -
1788043023 25° C 60% 1013.2 hPa 0 mm 7.15 m/s, 336° - -
1788042723 25° C 60% 1013.2 hPa 0 mm 4.92 m/s, 342° - -
1788042423 25° C 59% 1013.2 hPa 0 mm 4.02 m/s, 338° - -
1788042123 25° C 59% 1012.5 hPa 0 mm 1.79 m/s, 83° - -
1788041823 25° C 58% 1012.5 hPa 0 mm 0 m/s - -
1788041522 25.56° C 57% 1013.2 hPa 0 mm 0.45 m/s, 129° - -
1788041223 25.56° C 57% 1013.2 hPa 0 mm 1.34 m/s, 129° - -
1788040922 25.56° C 57% 1013.2 hPa 0 mm 1.79 m/s, 109° - -

* Rain latest hour (hover to see other rain measurements)
** Current wind speed in m/s (hover to see current wind gust speed)